<?xml version="1.0" encoding="UTF-8"?>
<gpx
version="1.1"
creator="Kashmir3D 9.350 - http://www.kashmir3d.com"
xmlns:xsi="http://www.w3.org/2001/XMLSchema-instance"
xmlns="http://www.topografix.com/GPX/1/1"
xmlns:kashmir3d="http://www.kashmir3d.com/namespace/kashmir3d"
xsi:schemaLocation="http://www.topografix.com/GPX/1/1 http://www.topografix.com/GPX/1/1/gpx.xsd
	http://www.kashmir3d.com/namespace/kashmir3d http://www.kashmir3d.com/namespace/kashmir3d.xsd">
<trk>
 <name>SUMAURA.KML(須磨浦山上遊園)</name>
 <number>1</number>
 <extensions>
 <kashmir3d:line_color>0000ff</kashmir3d:line_color>
 <kashmir3d:line_size>3</kashmir3d:line_size>
 <kashmir3d:line_style>1</kashmir3d:line_style>
 <kashmir3d:icon>901001</kashmir3d:icon>
 </extensions>
<trkseg>
<trkpt lat="34.637843" lon="135.100310">
 <ele>13.6</ele>
 <time>2020-03-27T10:02:20Z</time>
</trkpt>
<trkpt lat="34.637689" lon="135.100353">
 <ele>12.3</ele>
 <time>2020-03-27T10:02:20Z</time>
</trkpt>
<trkpt lat="34.637466" lon="135.099935">
 <ele>14.7</ele>
 <time>2020-03-27T10:02:21Z</time>
</trkpt>
<trkpt lat="34.637389" lon="135.099741">
 <ele>15.5</ele>
 <time>2020-03-27T10:02:21Z</time>
</trkpt>
<trkpt lat="34.637449" lon="135.099441">
 <ele>12.3</ele>
 <time>2020-03-27T10:02:21Z</time>
</trkpt>
<trkpt lat="34.637466" lon="135.099291">
 <ele>17.9</ele>
 <time>2020-03-27T10:02:21Z</time>
</trkpt>
<trkpt lat="34.637586" lon="135.099184">
 <ele>23.3</ele>
 <time>2020-03-27T10:02:21Z</time>
</trkpt>
<trkpt lat="34.637637" lon="135.099012">
 <ele>35.1</ele>
 <time>2020-03-27T10:02:21Z</time>
</trkpt>
<trkpt lat="34.637655" lon="135.098851">
 <ele>37.1</ele>
 <time>2020-03-27T10:02:21Z</time>
</trkpt>
<trkpt lat="34.637732" lon="135.098701">
 <ele>41.5</ele>
 <time>2020-03-27T10:02:21Z</time>
</trkpt>
<trkpt lat="34.637783" lon="135.098540">
 <ele>43.9</ele>
 <time>2020-03-27T10:02:21Z</time>
</trkpt>
<trkpt lat="34.637792" lon="135.098390">
 <ele>46.2</ele>
 <time>2020-03-27T10:02:22Z</time>
</trkpt>
<trkpt lat="34.637878" lon="135.098293">
 <ele>51.3</ele>
 <time>2020-03-27T10:02:22Z</time>
</trkpt>
<trkpt lat="34.637989" lon="135.098079">
 <ele>54.6</ele>
 <time>2020-03-27T10:02:22Z</time>
</trkpt>
<trkpt lat="34.638032" lon="135.097800">
 <ele>63</ele>
 <time>2020-03-27T10:02:22Z</time>
</trkpt>
<trkpt lat="34.638015" lon="135.097542">
 <ele>67.7</ele>
 <time>2020-03-27T10:02:22Z</time>
</trkpt>
<trkpt lat="34.637981" lon="135.097317">
 <ele>74.3</ele>
 <time>2020-03-27T10:02:22Z</time>
</trkpt>
<trkpt lat="34.637972" lon="135.097177">
 <ele>79</ele>
 <time>2020-03-27T10:02:22Z</time>
</trkpt>
<trkpt lat="34.637981" lon="135.097027">
 <ele>83.8</ele>
 <time>2020-03-27T10:02:22Z</time>
</trkpt>
<trkpt lat="34.637972" lon="135.096823">
 <ele>85.3</ele>
 <time>2020-03-27T10:02:22Z</time>
</trkpt>
<trkpt lat="34.637929" lon="135.096630">
 <ele>90.8</ele>
 <time>2020-03-27T10:02:22Z</time>
</trkpt>
<trkpt lat="34.637938" lon="135.096501">
 <ele>94.8</ele>
 <time>2020-03-27T10:02:23Z</time>
</trkpt>
<trkpt lat="34.637972" lon="135.096340">
 <ele>101.2</ele>
 <time>2020-03-27T10:02:23Z</time>
</trkpt>
<trkpt lat="34.638032" lon="135.096265">
 <ele>105.1</ele>
 <time>2020-03-27T10:02:23Z</time>
</trkpt>
<trkpt lat="34.638092" lon="135.096298">
 <ele>108.7</ele>
 <time>2020-03-27T10:02:23Z</time>
</trkpt>
<trkpt lat="34.638187" lon="135.096308">
 <ele>113.4</ele>
 <time>2020-03-27T10:02:23Z</time>
</trkpt>
<trkpt lat="34.638290" lon="135.096330">
 <ele>116.6</ele>
 <time>2020-03-27T10:02:23Z</time>
</trkpt>
<trkpt lat="34.638376" lon="135.096426">
 <ele>122.2</ele>
 <time>2020-03-27T10:02:23Z</time>
</trkpt>
<trkpt lat="34.638461" lon="135.096448">
 <ele>126.4</ele>
 <time>2020-03-27T10:02:23Z</time>
</trkpt>
<trkpt lat="34.638556" lon="135.096416">
 <ele>131.6</ele>
 <time>2020-03-27T10:02:23Z</time>
</trkpt>
<trkpt lat="34.638650" lon="135.096416">
 <ele>137.8</ele>
 <time>2020-03-27T10:02:23Z</time>
</trkpt>
<trkpt lat="34.638745" lon="135.096512">
 <ele>142.6</ele>
 <time>2020-03-27T10:02:24Z</time>
</trkpt>
<trkpt lat="34.638831" lon="135.096544">
 <ele>146.9</ele>
 <time>2020-03-27T10:02:24Z</time>
</trkpt>
<trkpt lat="34.638899" lon="135.096512">
 <ele>148.9</ele>
 <time>2020-03-27T10:02:24Z</time>
</trkpt>
<trkpt lat="34.638976" lon="135.096491">
 <ele>150.9</ele>
 <time>2020-03-27T10:02:24Z</time>
</trkpt>
<trkpt lat="34.639071" lon="135.096523">
 <ele>155.6</ele>
 <time>2020-03-27T10:02:24Z</time>
</trkpt>
<trkpt lat="34.639182" lon="135.096555">
 <ele>160.5</ele>
 <time>2020-03-27T10:02:24Z</time>
</trkpt>
<trkpt lat="34.639277" lon="135.096587">
 <ele>163.8</ele>
 <time>2020-03-27T10:02:24Z</time>
</trkpt>
<trkpt lat="34.639345" lon="135.096641">
 <ele>167.6</ele>
 <time>2020-03-27T10:02:24Z</time>
</trkpt>
<trkpt lat="34.639423" lon="135.096576">
 <ele>173.9</ele>
 <time>2020-03-27T10:02:24Z</time>
</trkpt>
<trkpt lat="34.639517" lon="135.096555">
 <ele>177.8</ele>
 <time>2020-03-27T10:02:24Z</time>
</trkpt>
<trkpt lat="34.639603" lon="135.096598">
 <ele>184.1</ele>
 <time>2020-03-27T10:02:25Z</time>
</trkpt>
<trkpt lat="34.639697" lon="135.096619">
 <ele>187.5</ele>
 <time>2020-03-27T10:02:25Z</time>
</trkpt>
<trkpt lat="34.639843" lon="135.096619">
 <ele>192.7</ele>
 <time>2020-03-27T10:02:25Z</time>
</trkpt>
<trkpt lat="34.639955" lon="135.096673">
 <ele>194.6</ele>
 <time>2020-03-27T10:02:25Z</time>
</trkpt>
<trkpt lat="34.640024" lon="135.096748">
 <ele>196.2</ele>
 <time>2020-03-27T10:02:25Z</time>
</trkpt>
<trkpt lat="34.640101" lon="135.096759">
 <ele>200</ele>
 <time>2020-03-27T10:02:25Z</time>
</trkpt>
<trkpt lat="34.640178" lon="135.096727">
 <ele>203.4</ele>
 <time>2020-03-27T10:02:25Z</time>
</trkpt>
<trkpt lat="34.640247" lon="135.096673">
 <ele>206.6</ele>
 <time>2020-03-27T10:02:25Z</time>
</trkpt>
<trkpt lat="34.640298" lon="135.096705">
 <ele>207.4</ele>
 <time>2020-03-27T10:02:25Z</time>
</trkpt>
<trkpt lat="34.640341" lon="135.096705">
 <ele>209.9</ele>
 <time>2020-03-27T10:02:26Z</time>
</trkpt>
<trkpt lat="34.640410" lon="135.096641">
 <ele>212</ele>
 <time>2020-03-27T10:02:26Z</time>
</trkpt>
<trkpt lat="34.640436" lon="135.096566">
 <ele>213</ele>
 <time>2020-03-27T10:02:26Z</time>
</trkpt>
<trkpt lat="34.640556" lon="135.096555">
 <ele>219.1</ele>
 <time>2020-03-27T10:02:26Z</time>
</trkpt>
<trkpt lat="34.640624" lon="135.096555">
 <ele>221.8</ele>
 <time>2020-03-27T10:02:26Z</time>
</trkpt>
<trkpt lat="34.640779" lon="135.096587">
 <ele>223.8</ele>
 <time>2020-03-27T10:02:26Z</time>
</trkpt>
<trkpt lat="34.640933" lon="135.096619">
 <ele>221.4</ele>
 <time>2020-03-27T10:02:26Z</time>
</trkpt>
<trkpt lat="34.641019" lon="135.096652">
 <ele>219.2</ele>
 <time>2020-03-27T10:02:26Z</time>
</trkpt>
<trkpt lat="34.641088" lon="135.096673">
 <ele>220.5</ele>
 <time>2020-03-27T10:02:26Z</time>
</trkpt>
<trkpt lat="34.641234" lon="135.096791">
 <ele>219.8</ele>
 <time>2020-03-27T10:02:26Z</time>
</trkpt>
<trkpt lat="34.641302" lon="135.096823">
 <ele>220.4</ele>
 <time>2020-03-27T10:02:27Z</time>
</trkpt>
<trkpt lat="34.641363" lon="135.096845">
 <ele>221.7</ele>
 <time>2020-03-27T10:02:27Z</time>
</trkpt>
<trkpt lat="34.641431" lon="135.096845">
 <ele>223.7</ele>
 <time>2020-03-27T10:02:27Z</time>
</trkpt>
<trkpt lat="34.641629" lon="135.096694">
 <ele>225.8</ele>
 <time>2020-03-27T10:02:27Z</time>
</trkpt>
<trkpt lat="34.641706" lon="135.096609">
 <ele>226.3</ele>
 <time>2020-03-27T10:02:27Z</time>
</trkpt>
<trkpt lat="34.641809" lon="135.096458">
 <ele>226.7</ele>
 <time>2020-03-27T10:02:27Z</time>
</trkpt>
<trkpt lat="34.641886" lon="135.096351">
 <ele>224.4</ele>
 <time>2020-03-27T10:02:27Z</time>
</trkpt>
<trkpt lat="34.641972" lon="135.096201">
 <ele>224.2</ele>
 <time>2020-03-27T10:02:27Z</time>
</trkpt>
<trkpt lat="34.642041" lon="135.096061">
 <ele>225.6</ele>
 <time>2020-03-27T10:02:27Z</time>
</trkpt>
<trkpt lat="34.642144" lon="135.095911">
 <ele>230.6</ele>
 <time>2020-03-27T10:02:28Z</time>
</trkpt>
<trkpt lat="34.642221" lon="135.095815">
 <ele>228.9</ele>
 <time>2020-03-27T10:02:28Z</time>
</trkpt>
<trkpt lat="34.642281" lon="135.095718">
 <ele>227.8</ele>
 <time>2020-03-27T10:02:28Z</time>
</trkpt>
<trkpt lat="34.642358" lon="135.095611">
 <ele>224.1</ele>
 <time>2020-03-27T10:02:28Z</time>
</trkpt>
<trkpt lat="34.642435" lon="135.095525">
 <ele>227.1</ele>
 <time>2020-03-27T10:02:28Z</time>
</trkpt>
<trkpt lat="34.642530" lon="135.095461">
 <ele>225.5</ele>
 <time>2020-03-27T10:02:28Z</time>
</trkpt>
<trkpt lat="34.642607" lon="135.095396">
 <ele>226.9</ele>
 <time>2020-03-27T10:02:28Z</time>
</trkpt>
<trkpt lat="34.642684" lon="135.095332">
 <ele>228.2</ele>
 <time>2020-03-27T10:02:28Z</time>
</trkpt>
<trkpt lat="34.642770" lon="135.095278">
 <ele>229.7</ele>
 <time>2020-03-27T10:02:28Z</time>
</trkpt>
<trkpt lat="34.642890" lon="135.095128">
 <ele>234.7</ele>
 <time>2020-03-27T10:02:28Z</time>
</trkpt>
<trkpt lat="34.642968" lon="135.095021">
 <ele>236.6</ele>
 <time>2020-03-27T10:02:29Z</time>
</trkpt>
<trkpt lat="34.643053" lon="135.094946">
 <ele>237.1</ele>
 <time>2020-03-27T10:02:29Z</time>
</trkpt>
<trkpt lat="34.643148" lon="135.094892">
 <ele>237.8</ele>
 <time>2020-03-27T10:02:29Z</time>
</trkpt>
<trkpt lat="34.643242" lon="135.094881">
 <ele>239.8</ele>
 <time>2020-03-27T10:02:29Z</time>
</trkpt>
<trkpt lat="34.643311" lon="135.094881">
 <ele>242.3</ele>
 <time>2020-03-27T10:02:29Z</time>
</trkpt>
<trkpt lat="34.643380" lon="135.094881">
 <ele>245</ele>
 <time>2020-03-27T10:02:29Z</time>
</trkpt>
<trkpt lat="34.643483" lon="135.094817">
 <ele>248.8</ele>
 <time>2020-03-27T10:02:29Z</time>
</trkpt>
<trkpt lat="34.643611" lon="135.094710">
 <ele>252.6</ele>
 <time>2020-03-27T10:02:29Z</time>
</trkpt>
<trkpt lat="34.643483" lon="135.094817">
 <ele>248.8</ele>
 <time>2020-03-27T10:02:29Z</time>
</trkpt>
<trkpt lat="34.643380" lon="135.094881">
 <ele>245</ele>
 <time>2020-03-27T10:02:29Z</time>
</trkpt>
<trkpt lat="34.643311" lon="135.094881">
 <ele>242.3</ele>
 <time>2020-03-27T10:02:30Z</time>
</trkpt>
<trkpt lat="34.643242" lon="135.094881">
 <ele>239.8</ele>
 <time>2020-03-27T10:02:30Z</time>
</trkpt>
<trkpt lat="34.643148" lon="135.094892">
 <ele>237.8</ele>
 <time>2020-03-27T10:02:30Z</time>
</trkpt>
<trkpt lat="34.643053" lon="135.094946">
 <ele>237.1</ele>
 <time>2020-03-27T10:02:30Z</time>
</trkpt>
<trkpt lat="34.642968" lon="135.095021">
 <ele>236.6</ele>
 <time>2020-03-27T10:02:30Z</time>
</trkpt>
<trkpt lat="34.642890" lon="135.095128">
 <ele>234.7</ele>
 <time>2020-03-27T10:02:30Z</time>
</trkpt>
<trkpt lat="34.642770" lon="135.095278">
 <ele>229.7</ele>
 <time>2020-03-27T10:02:30Z</time>
</trkpt>
<trkpt lat="34.642684" lon="135.095332">
 <ele>228.2</ele>
 <time>2020-03-27T10:02:30Z</time>
</trkpt>
<trkpt lat="34.642607" lon="135.095396">
 <ele>226.9</ele>
 <time>2020-03-27T10:02:30Z</time>
</trkpt>
<trkpt lat="34.642530" lon="135.095461">
 <ele>225.5</ele>
 <time>2020-03-27T10:02:31Z</time>
</trkpt>
<trkpt lat="34.642435" lon="135.095525">
 <ele>227.1</ele>
 <time>2020-03-27T10:02:31Z</time>
</trkpt>
<trkpt lat="34.642358" lon="135.095611">
 <ele>224.1</ele>
 <time>2020-03-27T10:02:31Z</time>
</trkpt>
<trkpt lat="34.642281" lon="135.095718">
 <ele>227.8</ele>
 <time>2020-03-27T10:02:31Z</time>
</trkpt>
<trkpt lat="34.642221" lon="135.095815">
 <ele>228.9</ele>
 <time>2020-03-27T10:02:31Z</time>
</trkpt>
<trkpt lat="34.642144" lon="135.095911">
 <ele>230.6</ele>
 <time>2020-03-27T10:02:31Z</time>
</trkpt>
<trkpt lat="34.642041" lon="135.096061">
 <ele>225.6</ele>
 <time>2020-03-27T10:02:31Z</time>
</trkpt>
<trkpt lat="34.641972" lon="135.096201">
 <ele>224.2</ele>
 <time>2020-03-27T10:02:31Z</time>
</trkpt>
<trkpt lat="34.641886" lon="135.096351">
 <ele>224.4</ele>
 <time>2020-03-27T10:02:31Z</time>
</trkpt>
<trkpt lat="34.641809" lon="135.096458">
 <ele>226.7</ele>
 <time>2020-03-27T10:02:31Z</time>
</trkpt>
<trkpt lat="34.641706" lon="135.096609">
 <ele>226.3</ele>
 <time>2020-03-27T10:02:32Z</time>
</trkpt>
<trkpt lat="34.641629" lon="135.096694">
 <ele>225.8</ele>
 <time>2020-03-27T10:02:32Z</time>
</trkpt>
<trkpt lat="34.641431" lon="135.096845">
 <ele>223.7</ele>
 <time>2020-03-27T10:02:32Z</time>
</trkpt>
<trkpt lat="34.641363" lon="135.096845">
 <ele>221.7</ele>
 <time>2020-03-27T10:02:32Z</time>
</trkpt>
<trkpt lat="34.641302" lon="135.096823">
 <ele>220.4</ele>
 <time>2020-03-27T10:02:32Z</time>
</trkpt>
<trkpt lat="34.641234" lon="135.096791">
 <ele>219.8</ele>
 <time>2020-03-27T10:02:32Z</time>
</trkpt>
<trkpt lat="34.641088" lon="135.096673">
 <ele>220.5</ele>
 <time>2020-03-27T10:02:32Z</time>
</trkpt>
<trkpt lat="34.641019" lon="135.096652">
 <ele>219.2</ele>
 <time>2020-03-27T10:02:32Z</time>
</trkpt>
<trkpt lat="34.640933" lon="135.096619">
 <ele>221.4</ele>
 <time>2020-03-27T10:02:32Z</time>
</trkpt>
<trkpt lat="34.640779" lon="135.096587">
 <ele>223.8</ele>
 <time>2020-03-27T10:02:32Z</time>
</trkpt>
<trkpt lat="34.640624" lon="135.096555">
 <ele>221.8</ele>
 <time>2020-03-27T10:02:33Z</time>
</trkpt>
<trkpt lat="34.640556" lon="135.096555">
 <ele>219.1</ele>
 <time>2020-03-27T10:02:33Z</time>
</trkpt>
<trkpt lat="34.640436" lon="135.096566">
 <ele>213</ele>
 <time>2020-03-27T10:02:33Z</time>
</trkpt>
<trkpt lat="34.640410" lon="135.096641">
 <ele>212</ele>
 <time>2020-03-27T10:02:33Z</time>
</trkpt>
<trkpt lat="34.640341" lon="135.096705">
 <ele>209.9</ele>
 <time>2020-03-27T10:02:33Z</time>
</trkpt>
<trkpt lat="34.640298" lon="135.096705">
 <ele>207.4</ele>
 <time>2020-03-27T10:02:33Z</time>
</trkpt>
<trkpt lat="34.640247" lon="135.096673">
 <ele>206.6</ele>
 <time>2020-03-27T10:02:33Z</time>
</trkpt>
<trkpt lat="34.640178" lon="135.096727">
 <ele>203.4</ele>
 <time>2020-03-27T10:02:33Z</time>
</trkpt>
<trkpt lat="34.640101" lon="135.096759">
 <ele>200</ele>
 <time>2020-03-27T10:02:33Z</time>
</trkpt>
<trkpt lat="34.640024" lon="135.096748">
 <ele>196.2</ele>
 <time>2020-03-27T10:02:34Z</time>
</trkpt>
<trkpt lat="34.639955" lon="135.096673">
 <ele>194.6</ele>
 <time>2020-03-27T10:02:34Z</time>
</trkpt>
<trkpt lat="34.639843" lon="135.096619">
 <ele>192.7</ele>
 <time>2020-03-27T10:02:34Z</time>
</trkpt>
<trkpt lat="34.639697" lon="135.096619">
 <ele>187.5</ele>
 <time>2020-03-27T10:02:34Z</time>
</trkpt>
<trkpt lat="34.639603" lon="135.096598">
 <ele>184.1</ele>
 <time>2020-03-27T10:02:34Z</time>
</trkpt>
<trkpt lat="34.639517" lon="135.096555">
 <ele>177.8</ele>
 <time>2020-03-27T10:02:34Z</time>
</trkpt>
<trkpt lat="34.639423" lon="135.096576">
 <ele>173.9</ele>
 <time>2020-03-27T10:02:34Z</time>
</trkpt>
<trkpt lat="34.639345" lon="135.096641">
 <ele>167.6</ele>
 <time>2020-03-27T10:02:34Z</time>
</trkpt>
<trkpt lat="34.639277" lon="135.096587">
 <ele>163.8</ele>
 <time>2020-03-27T10:02:34Z</time>
</trkpt>
<trkpt lat="34.639182" lon="135.096555">
 <ele>160.5</ele>
 <time>2020-03-27T10:02:34Z</time>
</trkpt>
<trkpt lat="34.639071" lon="135.096523">
 <ele>155.6</ele>
 <time>2020-03-27T10:02:35Z</time>
</trkpt>
<trkpt lat="34.638976" lon="135.096491">
 <ele>150.9</ele>
 <time>2020-03-27T10:02:35Z</time>
</trkpt>
<trkpt lat="34.638899" lon="135.096512">
 <ele>148.9</ele>
 <time>2020-03-27T10:02:35Z</time>
</trkpt>
<trkpt lat="34.638831" lon="135.096544">
 <ele>146.9</ele>
 <time>2020-03-27T10:02:35Z</time>
</trkpt>
<trkpt lat="34.638745" lon="135.096512">
 <ele>142.6</ele>
 <time>2020-03-27T10:02:35Z</time>
</trkpt>
<trkpt lat="34.638650" lon="135.096416">
 <ele>137.8</ele>
 <time>2020-03-27T10:02:35Z</time>
</trkpt>
<trkpt lat="34.638556" lon="135.096416">
 <ele>131.6</ele>
 <time>2020-03-27T10:02:35Z</time>
</trkpt>
<trkpt lat="34.638461" lon="135.096448">
 <ele>126.4</ele>
 <time>2020-03-27T10:02:35Z</time>
</trkpt>
<trkpt lat="34.638376" lon="135.096426">
 <ele>122.2</ele>
 <time>2020-03-27T10:02:35Z</time>
</trkpt>
<trkpt lat="34.638290" lon="135.096330">
 <ele>116.6</ele>
 <time>2020-03-27T10:02:35Z</time>
</trkpt>
<trkpt lat="34.638187" lon="135.096308">
 <ele>113.4</ele>
 <time>2020-03-27T10:02:36Z</time>
</trkpt>
<trkpt lat="34.638092" lon="135.096298">
 <ele>108.7</ele>
 <time>2020-03-27T10:02:36Z</time>
</trkpt>
<trkpt lat="34.638032" lon="135.096265">
 <ele>105.1</ele>
 <time>2020-03-27T10:02:36Z</time>
</trkpt>
<trkpt lat="34.637972" lon="135.096340">
 <ele>101.2</ele>
 <time>2020-03-27T10:02:36Z</time>
</trkpt>
<trkpt lat="34.637938" lon="135.096501">
 <ele>94.8</ele>
 <time>2020-03-27T10:02:36Z</time>
</trkpt>
<trkpt lat="34.637929" lon="135.096630">
 <ele>90.8</ele>
 <time>2020-03-27T10:02:36Z</time>
</trkpt>
<trkpt lat="34.637972" lon="135.096823">
 <ele>85.3</ele>
 <time>2020-03-27T10:02:36Z</time>
</trkpt>
<trkpt lat="34.637981" lon="135.097027">
 <ele>83.8</ele>
 <time>2020-03-27T10:02:36Z</time>
</trkpt>
<trkpt lat="34.637972" lon="135.097177">
 <ele>79</ele>
 <time>2020-03-27T10:02:36Z</time>
</trkpt>
<trkpt lat="34.637981" lon="135.097317">
 <ele>74.3</ele>
 <time>2020-03-27T10:02:36Z</time>
</trkpt>
<trkpt lat="34.638015" lon="135.097542">
 <ele>67.7</ele>
 <time>2020-03-27T10:02:37Z</time>
</trkpt>
<trkpt lat="34.638032" lon="135.097800">
 <ele>63</ele>
 <time>2020-03-27T10:02:37Z</time>
</trkpt>
<trkpt lat="34.637989" lon="135.098079">
 <ele>54.6</ele>
 <time>2020-03-27T10:02:37Z</time>
</trkpt>
<trkpt lat="34.637878" lon="135.098293">
 <ele>51.3</ele>
 <time>2020-03-27T10:02:37Z</time>
</trkpt>
<trkpt lat="34.637792" lon="135.098390">
 <ele>46.2</ele>
 <time>2020-03-27T10:02:37Z</time>
</trkpt>
<trkpt lat="34.637783" lon="135.098540">
 <ele>43.9</ele>
 <time>2020-03-27T10:02:37Z</time>
</trkpt>
<trkpt lat="34.637732" lon="135.098701">
 <ele>41.5</ele>
 <time>2020-03-27T10:02:37Z</time>
</trkpt>
<trkpt lat="34.637655" lon="135.098851">
 <ele>37.1</ele>
 <time>2020-03-27T10:02:37Z</time>
</trkpt>
<trkpt lat="34.637637" lon="135.099012">
 <ele>35.1</ele>
 <time>2020-03-27T10:02:37Z</time>
</trkpt>
<trkpt lat="34.637586" lon="135.099184">
 <ele>23.3</ele>
 <time>2020-03-27T10:02:38Z</time>
</trkpt>
<trkpt lat="34.637466" lon="135.099291">
 <ele>17.9</ele>
 <time>2020-03-27T10:02:38Z</time>
</trkpt>
<trkpt lat="34.637449" lon="135.099441">
 <ele>12.3</ele>
 <time>2020-03-27T10:02:38Z</time>
</trkpt>
<trkpt lat="34.637389" lon="135.099741">
 <ele>15.5</ele>
 <time>2020-03-27T10:02:38Z</time>
</trkpt>
<trkpt lat="34.637466" lon="135.099935">
 <ele>14.7</ele>
 <time>2020-03-27T10:02:38Z</time>
</trkpt>
<trkpt lat="34.637689" lon="135.100353">
 <ele>12.3</ele>
 <time>2020-03-27T10:02:38Z</time>
</trkpt>
<trkpt lat="34.637843" lon="135.100310">
 <ele>13.6</ele>
 <time>2020-03-27T10:02:38Z</time>
</trkpt>
</trkseg>
</trk>
</gpx>

